PEGASUS DEB

基本信息
目录编号:
25442
目录名称:
PEGASUS DEB
国际标识:
1994-029ADX
轨道中心:
EARTH
物体状态:
在轨
发射日期:
1994-05-19 UTC
轨道信息
数据来源: 国际轨道数据
星历时间: 2026-09-09T17:13:27+0800
半长轴: 7059.022km
偏心率: 0.019684
轨道倾角: 81.748°
近地点辐角: 3.314°
升交点赤经: 236.478°
平近点角: 356.930°
近地点: 541.935km
远地点: 819.835km
周期: 98.373分钟
每日圈数: 14.638145
详细信息
发射场:
AFWTR
轨道高度:
LEO
数据来源:
AOE Integration Group
参考系:
TEME
时间系统:
UTC
历元类型:
SGP4
2D轨道图
3D轨道图
轨道高度分析图
轨道倾角分析图
轨道综合分析图
查看轨道综合分析图